HYDRA-W (63490 NORAD) Tracking and Keplerian Element Data

This shows tracking and keplerian element data for the satellite.

Feedback or suggestion? Click here.




ElementValue
Catalog63490
NameHYDRA-W
Epoch Orbit4287
Epoch Day354.23001479
Epoch Year2025
RAAN248.1226
Inclination97.4063
Eccentricity0.001121
Argument of Perigee52.4538
Mean Anonmoly307.7726
Mean Motion15.42347597
Decay Rate0.00051402
L11 63490U 25052BL 25354.23001479 .00051402 00000-0 11852-2 0 9992
L22 63490 97.4063 248.1226 0011210 52.4538 307.7726 15.42347597 42870



Live tracking and technical data element details for HYDRA-W (NORAD 63490). HYDRA-W can be tracked NOW for your location showing map with azimuth and elevation plus other details from your city location.







IsCatalogInMostPopularTable: catalog: 63490, numindb: 27
Update: records affected: 1



GetName: 63490 HYDRA-W

Hit Count: updated at: Tue, 21 Apr 2026 21:43:50 GMT